GW4797 Weather Reports


time (UTC)temp
F
wind
direction
speed
knots
gust
knots
rain 1hr
in
rain 24hr
in
rain mn
in
humidity
%
barometer
mb
20260504050504 49 283 3.5 7.0 0.00 0.00 0.00 50 1013.5
20260504050004 49 238 1.7 5.2 0.00 0.00 0.00 50 1013.5
20260504045505 49 242 0.9 5.2 0.00 0.00 0.00 50 1013.5
20260504045002 48 236 2.6 4.3 0.00 0.00 0.00 50 1013.5
20260504044506 49 251 1.7 4.3 0.00 0.00 0.00 51 1013.6
20260504044005 49 245 0.9 4.3 0.00 0.00 0.00 50 1013.5
20260504043505 49 239 1.7 4.3 0.00 0.00 0.00 49 1013.5
20260504043003 48 211 0.9 4.3 0.00 0.00 0.00 50 1013.4
20260504042503 48 236 0.9 3.5 0.00 0.00 0.00 50 1013.5
20260504042003 48 244 0.9 2.6 0.00 0.00 0.00 50 1013.4
20260504041510 48 227 0.9 2.6 0.00 0.00 0.00 50 1013.4
20260504041003 48 235 0.9 2.6 0.00 0.00 0.00 50 1013.4
20260504040503 48 210 0.9 2.6 0.00 0.00 0.00 50 1013.3
20260504040008 48 234 0.9 2.6 0.00 0.00 0.00 50 1013.3
20260504035507 48 231 0.9 3.5 0.00 0.00 0.00 50 1013.3
20260504035003 48 240 0.9 3.5 0.00 0.00 0.00 50 1013.2
20260504034508 49 248 0.9 1.7 0.00 0.00 0.00 49 1013.3
20260504034002 49 262 0.0 2.6 0.00 0.00 0.00 49 1013.2
20260504033502 49 262 0.0 2.6 0.00 0.00 0.00 49 1013.3
20260504033009 49 240 0.9 2.6 0.00 0.00 0.00 48 1013.3
20260504032506 49 253 0.9 2.6 0.00 0.00 0.00 48 1013.3
20260504032008 49 248 0.9 2.6 0.00 0.00 0.00 48 1013.3
20260504031505 49 259 0.9 2.6 0.00 0.00 0.00 48 1013.2
20260504031003 49 259 0.9 2.6 0.00 0.00 0.00 48 1013.2
20260504030507 49 248 0.9 2.6 0.00 0.00 0.00 48 1013.2
20260504030009 50 230 0.0 2.6 0.00 0.00 0.00 47 1013.2
20260504025503 50 236 0.9 2.6 0.00 0.00 0.00 47 1013.3
20260504025003 50 252 0.9 2.6 0.00 0.00 0.00 46 1013.3
20260504024508 50 238 0.9 3.5 0.00 0.00 0.00 46 1013.2
20260504024007 50 250 0.9 3.5 0.00 0.00 0.00 46 1013.3
20260504023504 50 259 0.9 2.6 0.00 0.00 0.00 46 1013.3
20260504023012 51 217 0.0 3.5 0.00 0.00 0.00 46 1013.2
20260504022509 51 261 0.9 3.5 0.00 0.00 0.00 45 1013.2
20260504022004 51 219 0.9 2.6 0.00 0.00 0.00 45 1013.2
20260504021511 51 227 0.0 4.3 0.00 0.00 0.00 45 1013.2
20260504021004 51 223 0.9 4.3 0.00 0.00 0.00 44 1013.2
20260504020504 51 236 1.7 4.3 0.00 0.00 0.00 45 1013.2
20260504020006 51 238 1.7 3.5 0.00 0.00 0.00 44 1013.1
20260504015504 51 218 0.9 2.6 0.00 0.00 0.00 44 1013.1
20260504015006 51 203 0.9 3.5 0.00 0.00 0.00 44 1013.1
20260504014514 51 223 1.7 3.5 0.00 0.00 0.00 44 1013.1
20260504014003 51 256 1.7 3.5 0.00 0.00 0.00 44 1013.1
20260504013504 51 234 0.9 2.6 0.00 0.00 0.00 44 1013.1
20260504013018 51 234 0.9 2.6 0.00 0.00 0.00 43 1013.1
20260504012505 52 238 0.9 2.6 0.00 0.00 0.00 43 1013.0
20260504012005 52 198 0.9 3.5 0.00 0.00 0.00 43 1012.9
20260504011513 52 184 1.7 3.5 0.00 0.00 0.00 43 1012.8
20260504011004 52 223 0.9 3.5 0.00 0.00 0.00 42 1012.8
20260504010505 52 217 1.7 4.3 0.00 0.00 0.00 42 1012.7
20260504010014 52 251 1.7 4.3 0.00 0.00 0.00 42 1012.7
20260504005505 52 261 0.9 3.5 0.00 0.00 0.00 42 1012.7
20260504005004 52 240 1.7 4.3 0.00 0.00 0.00 41 1012.7
20260504004511 53 243 1.7 4.3 0.00 0.00 0.00 41 1012.6
20260504004008 53 219 1.7 3.5 0.00 0.00 0.00 41 1012.5
20260504003509 53 226 0.9 3.5 0.00 0.00 0.00 41 1012.5
20260504003016 53 222 1.7 4.3 0.00 0.00 0.00 40 1012.4
20260504002506 53 221 1.7 4.3 0.00 0.00 0.00 40 1012.4
20260504002007 53 225 0.9 3.5 0.00 0.00 0.00 40 1012.3
20260504001515 54 249 1.7 6.1 0.00 0.00 0.00 39 1012.3
20260504001005 54 243 1.7 5.2 0.00 0.00 0.00 39 1012.4
20260504000505 54 240 1.7 7.0 0.00 0.00 0.00 39 1012.4
20260504000044 55 277 2.6 8.7 0.00 0.00 0.00 38 1012.4
20260503235509 55 274 3.5 8.7 0.00 0.00 0.00 39 1012.3
20260503235004 55 276 3.5 10.4 0.00 0.00 0.00 38 1012.3
20260503234518 55 275 5.2 10.4 0.00 0.00 0.00 37 1012.2
20260503234004 55 273 2.6 7.8 0.00 0.00 0.00 38 1012.3
20260503233507 56 269 4.3 9.6 0.00 0.00 0.00 37 1012.2
20260503233012 56 209 3.5 9.6 0.00 0.00 0.00 37 1012.2
20260503232505 55 251 3.5 8.7 0.00 0.00 0.00 38 1012.1
20260503232005 55 283 5.2 9.6 0.00 0.00 0.00 38 1012.1
20260503231516 56 273 3.5 9.6 0.00 0.00 0.00 37 1012.2
20260503231008 56 267 5.2 8.7 0.00 0.00 0.00 37 1012.1
20260503230509 56 263 3.5 11.3 0.00 0.00 0.00 39 1012.1
20260503230018 56 272 4.3 11.3 0.00 0.00 0.00 38 1012.1
20260503225508 56 250 3.5 11.3 0.00 0.00 0.00 36 1012.1
20260503225009 56 293 7.0 13.0 0.00 0.00 0.00 36 1012.1
20260503224519 56 290 7.0 15.6 0.00 0.00 0.00 37 1012.1
20260503224006 56 267 5.2 15.6 0.00 0.00 0.00 37 1012.1
20260503223506 56 284 7.8 15.6 0.00 0.00 0.00 37 1012.1
20260503223019 56 271 7.8 15.6 0.00 0.00 0.00 38 1012.2
20260503222505 56 290 7.8 11.3 0.00 0.00 0.00 36 1012.2
20260503222005 56 282 7.0 11.3 0.00 0.00 0.00 36 1012.2
20260503221517 57 294 6.1 11.3 0.00 0.00 0.00 35 1012.2
20260503221007 57 265 4.3 13.0 0.00 0.00 0.00 35 1012.1
20260503220505 58 271 4.3 13.0 0.00 0.00 0.00 36 1012.1
20260503220018 57 254 6.1 13.0 0.00 0.00 0.00 1012.1
20260503215512 56 268 7.8 16.5 0.00 0.00 0.00 35 1012.2
20260503215008 56 253 10.4 16.5 0.00 0.00 0.00 35 1012.2
20260503214523 57 268 7.8 13.9 0.00 0.00 0.00 36 1012.1
20260503214014 57 275 7.8 13.9 0.00 0.00 0.00 34 1012.0
20260503213516 57 273 7.8 12.2 0.00 0.00 0.00 35 1011.9
20260503213021 56 266 7.0 13.0 0.00 0.00 0.00 35 1011.9
20260503212510 56 255 7.0 13.9 0.00 0.00 0.00 36 1012.0
20260503212012 57 281 6.1 15.6 0.00 0.00 0.00 36 1011.9
20260503211516 57 267 8.7 15.6 0.00 0.00 0.00 35 1011.8
20260503211007 57 283 3.5 9.6 0.00 0.00 0.00 37 1011.8
20260503210509 56 290 4.3 11.3 0.00 0.00 0.00 36 1011.9
20260503210021 56 234 5.2 13.0 0.00 0.00 0.00 35 1012.0
20260503205507 56 250 7.8 13.0 0.00 0.00 0.00 35 1012.0
20260503205010 56 259 7.8 14.8 0.00 0.00 0.00 35 1012.0
20260503204523 57 286 8.7 14.8 0.00 0.00 0.00 35 1011.9
20260503204011 57 293 8.7 13.0 0.00 0.00 0.00 36 1011.8
20260503203515 57 291 7.8 12.2 0.00 0.00 0.00 40 1012.0
20260503203038 56 293 4.3 10.4 0.00 0.00 0.00 1011.9
20260503202506 55 300 5.2 12.2 0.00 0.00 0.00 37 1011.9
20260503202011 56 294 7.0 12.2 0.00 0.00 0.00 37 1012.0
20260503201512 56 246 4.3 13.0 0.00 0.00 0.00 37 1012.0
20260503201006 55 278 7.0 13.9 0.00 0.00 0.00 37 1012.2
20260503200509 56 271 7.8 13.9 0.00 0.00 0.00 34 1012.2
20260503200016 55 315 7.0 14.8 0.00 0.00 0.00 39 1012.2
20260503195507 56 279 7.8 14.8 0.00 0.00 0.00 38 1012.3
20260503195012 56 256 3.5 13.9 0.00 0.00 0.00 38 1012.4
20260503194504 57 240 8.7 13.9 0.00 0.00 0.00 35 1012.4
20260503194004 56 269 5.2 15.6 0.00 0.00 0.00 39 1012.5
20260503193505 56 294 9.6 17.4 0.00 0.00 0.00 37 1012.5
20260503193008 55 302 4.3 17.4 0.00 0.00 0.00 38 1012.4
20260503192504 55 284 7.0 11.3 0.00 0.00 0.00 36 1012.5
20260503192006 55 309 4.3 11.3 0.00 0.00 0.00 35 1012.5
20260503191510 56 275 5.2 13.9 0.00 0.00 0.00 37 1012.6
20260503191004 56 300 9.6 13.9 0.00 0.00 0.00 41 1012.7
20260503190507 55 274 6.1 12.2 0.00 0.00 0.00 38 1012.9
20260503190014 55 272 6.1 12.2 0.00 0.00 0.00 39 1012.8
20260503185507 56 237 6.1 13.9 0.00 0.00 0.00 37 1012.7
20260503185008 55 190 7.8 13.9 0.00 0.00 0.00 38 1012.9
20260503184522 55 293 7.0 14.8 0.00 0.00 0.00 37 1012.9
20260503184010 55 304 11.3 14.8 0.00 0.00 0.00 37 1013.0
20260503183513 56 294 6.1 14.8 0.00 0.00 0.00 37 1013.0
20260503183004 56 284 8.7 16.5 0.00 0.00 0.00 36 1013.0
20260503182503 55 325 7.8 16.5 0.00 0.00 0.00 39 1013.0
20260503182004 55 296 7.0 14.8 0.00 0.00 0.00 37 1013.0
20260503181509 55 309 7.0 17.4 0.00 0.00 0.00 37 1013.0
20260503181005 55 246 8.7 20.0 0.00 0.00 0.00 34 1013.0
20260503180505 56 271 11.3 20.0 0.00 0.00 0.00 33 1013.1
20260503180022 56 276 7.0 13.0 0.00 0.00 0.00 34 1012.9
20260503175504 55 296 6.1 13.0 0.00 0.00 0.00 35 1013.1
20260503175008 55 234 5.2 16.5 0.00 0.00 0.00 38 1013.1
20260503174520 54 347 4.3 16.5 0.00 0.00 0.00 38 1013.2
20260503174010 54 267 7.0 16.5 0.00 0.00 0.00 36 1013.3
20260503173506 54 311 3.5 13.0 0.00 0.00 0.00 36 1013.2
20260503173039 54 262 5.2 12.2 0.00 0.00 0.00 39 1013.3
20260503172510 53 304 4.3 12.2 0.00 0.00 0.00 39 1013.4
20260503172013 52 344 3.5 10.4 0.00 0.00 0.00 40 1013.5
20260503171504 52 243 5.2 10.4 0.00 0.00 0.00 42 1013.6
20260503171004 52 327 7.0 11.3 0.00 0.00 0.00 39 1013.7
20260503170503 53 263 7.0 17.4 0.00 0.00 0.00 38 1013.8
20260503151008 49 281 5.2 13.0 0.00 0.00 0.00 46 1014.9
20260503150509 47 346 7.0 13.9 0.00 0.00 0.00 45 1015.0
20260503131007 43 302 6.1 10.4 0.00 0.00 0.00 53 1015.5
20260503130508 43 323 5.2 9.6 0.00 0.00 0.00 53 1015.6
20260503110507 35 290 0.9 2.6 0.00 0.00 0.00 75 1015.2
20260503090503 36 296 0.0 2.6 0.00 0.00 0.00 72 1014.3
20260503081508 36 292 0.0 3.5 0.00 0.00 0.00 74 1014.0
20260503081003 36 331 0.9 2.6 0.00 0.00 0.00 74 1014.0
20260503080506 36 332 0.9 1.7 0.00 0.00 0.00 73 1014.0
20260503072510 37 323 0.0 2.6 0.00 0.00 0.00 72 1013.9
20260503072007 37 352 0.9 3.5 0.00 0.00 0.00 72 1013.9
20260503071524 37 298 0.9 3.5 0.00 0.00 0.00 72 1013.9
20260503071008 37 348 0.9 3.5 0.00 0.00 0.00 72 1013.9
20260503070511 37 302 0.9 3.5 0.00 0.00 0.00 72 1013.9
20260503055011 40 310 0.9 3.5 0.00 0.00 0.00 67 1014.2
20260503054510 40 327 0.9 3.5 0.00 0.00 0.00 67 1014.1
20260503054003 40 360 0.9 3.5 0.00 0.01 0.00 67 1014.2
20260503053507 40 321 0.0 3.5 0.00 0.01 0.00 66 1014.2
20260503053017 40 311 0.9 4.3 0.00 0.01 0.00 66 1014.2